Showing default

COSMOS 2476 (GLONASS), 37867

Orbit data source: Space-Track

COSMOS 2476 (GLONASS), 37867 is a Commonwealth of Independent States-origin payload satellite in MEO that was launched on Fri, 04 Nov 2011 UTC via a PROTON-M/BRIZ-M launch vehicle from the Tyuratam Missile And Space Complex (TTMTR). Payload-class satellites include a variety of spacecraft equipped with specific instruments for various scientific and technological missions. These include communications satellites like Starlink; space stations such as the ISS; scientific satellites like the Hubble; Earth observation satellites from companies like Planet Labs, Umbra, and HawkEye 360; GPS; miniature CubeSats for education and research; and military/defense satellites.

Loading next visibility...
Identifier
37867, 2011-064A
Orbit
MEO
Country
Flag of CISCIS
Related business
Manufacturer
Resehetnev ISS
Mission
Operational Defense Navigation
Bus & Motor
URAGAN, Unknown motor
Mass
1,450 kg wet, ~1,200 kg dry
Launch date (UTC)
2011-11-04 (14 years ago)
Launch vehicle
PROTON-M/BRIZ-M
Launch site
Tyuratam Missile And Space Complex (TTMTR)
Object type
Payload
Rocket body
Debris
Shape & HBR
Cyl + 1 Ant + 2 Pan, 3.9 m
Radar Cross Section
8.467 m², Large (>1 m²)

Expand to show TLE details & history
Last TLE update: 3 days ago

TLE from 3 days ago
0 COSMOS 2476 (GLONASS)
1 37867U 11064A   25256.32272113  .00000027  00000-0  00000-0 0  9993
2 37867  65.1108  82.2291 0021886 231.0391 292.2193  2.13101419107864
Epoch: 2025-09-13T07:44Z
TLE epoch observation values (Epoch: 2025-09-13T07:44:43.105Z)
Latitude
15.36973°
Longitude
146.16482°
Altitude
19,109.033 km
Speed
3.957 km/s
True Right ascension
16h 59m 36s
True Declination
15° 20' 43"
Sunlit
Object was in daylight at epoch
Visualization orbit readout
Latitude
Unknown
Longitude
Unknown
Altitude
Unknown
Speed
Unknown
Apparent Right ascension
Unknown
Apparent Declination
Unknown
Sunlit
N/A
Visualization observer readout
Local Sidereal Time
18:54:05
Azimuth
Unknown
Elevation
Unknown
Doppler factor
Unknown
Orbital elements
Apogee altitude
19,185.371 km
Perigee altitude
19,073.719 km
Semi-major axis
25,507.682 km
Eccentricity
0.00219
Inclination
65.1108°
RAAN
82.2291°
Arg. of periapsis
231.0391°
True anomaly
291.98689°
Mean anomaly
292.2193°
Eccentric anomaly
292.10312°
Mean motion
0.53277 °/min
Orbital period
675.72 mins
BSTAR
0
Loading maneuver chart data...
Computing Atmospheric mass density...
Loading historical data...
Loading historical data...
Loading historical data...
Loading historical data...
Loading historical data...
Loading historical data...
Loading historical data...

Documentation

Showing up to 5 results
|